Location: Maiden
(35.5760°N, 81.2120°W)
Time: 02:33:43
(UTC-04:00)

Vanguard 2 - Pass Details

Date: 04 August 2020
Orbit: 553 x 2937 km, 32.9° (Epoch: 20 September)

Event Time Altitude Azimuth Distance (km) Brightness Sun altitude
Rises 20:17:05 0° 204° (SSW) 6,778 12.4 0.8°
Reaches altitude 10° 20:23:03 10° 192° (SSW) 5,709 11.9 -0.4°
Maximum altitude 20:35:19 25° 147° (SSE) 4,143 10.8 -2.7°
Drops below altitude 10° 20:45:10 10° 99° (E) 4,550 10.8 -4.5°
Sets 20:49:07 0° 86° (E) 5,193 11.2 -5.3°
